Location: Buch
(50.1863°N, 11.0141°E)
Time: 12:59:55
(UTC+00:00)

Cosmos 2341 Rocket - Pass Details

Date: 18 January 2020
Orbit: 967 x 1005 km, 82.9° (Epoch: 27 February)

Event Time Altitude Azimuth Distance (km) Brightness Sun altitude
Rises 04:32:20 0° 351° (N) 3,714 6.9 -24.2°
Reaches altitude 10° 04:34:55 10° 355° (N) 2,756 6.3 -23.8°
Maximum altitude 04:41:11 63° 77° (ENE) 1,091 4.4 -22.8°
Drops below altitude 10° 04:47:20 10° 158° (SSE) 2,713 6.7 -21.8°
Sets 04:49:51 0° 161° (SSE) 3,653 7.3 -21.4°
